| time (UTC) | temp F | wind direction | speed MPH | gust MPH | rain 1hr in | rain 24hr in | rain mn in | humidity % | barometer mb |
| 20260904171504 | 68 | 346 | 0.0 | 5.0 | 0.00 | 0.56 | 0.53 | 98 | 1012.2 |
| 20260904170003 | 68 | 351 | 0.0 | 4.0 | 0.00 | 0.56 | 0.53 | 99 | 1012.2 |
| 20260904164502 | 68 | 5 | 1.0 | 4.0 | 0.00 | 0.56 | 0.53 | 99 | 1012.3 |
| 20260904163002 | 68 | 26 | 0.0 | 6.0 | 0.00 | 0.56 | 0.53 | 100 | 1012.3 |
| 20260904161501 | 68 | 40 | 0.0 | 3.0 | 0.00 | 0.56 | 0.53 | 100 | 1012.2 |
| 20260904160001 | 68 | 32 | 1.0 | 5.0 | 0.00 | 0.56 | 0.53 | 100 | 1012.0 |
| 20260904154602 | 67 | 19 | 0.0 | 3.0 | 0.00 | 0.56 | 0.53 | 100 | 1011.9 |
| 20260904153115 | 67 | 9 | 0.0 | 4.0 | 0.00 | 0.56 | 0.53 | 100 | 1011.9 |
| 20260904151559 | 67 | 331 | 0.0 | 2.0 | 0.00 | 0.56 | 0.53 | 100 | 1011.7 |
| 20260904150059 | 68 | 331 | 0.0 | 2.0 | 0.00 | 0.56 | 0.53 | 100 | 1011.5 |
| 20260904144611 | 68 | 331 | 0.0 | 1.0 | 0.00 | 0.56 | 0.53 | 100 | 1011.4 |
| 20260904143118 | 67 | 331 | 0.0 | 2.0 | 0.00 | 0.56 | 0.53 | 100 | 1011.4 |
| 20260904141555 | 67 | 328 | 0.0 | 0.0 | 0.00 | 0.56 | 0.53 | 100 | 1011.2 |
| 20260904140054 | 67 | 328 | 0.0 | 2.0 | 0.00 | 0.56 | 0.53 | 100 | 1011.1 |
| 20260904134557 | 67 | 328 | 0.0 | 2.0 | 0.00 | 0.56 | 0.53 | 100 | 1011.1 |
| 20260904133105 | 67 | 325 | 0.0 | 3.0 | 0.00 | 0.56 | 0.53 | 100 | 1010.9 |
| 20260904131553 | 66 | 325 | 0.0 | 2.0 | 0.00 | 0.56 | 0.53 | 100 | 1010.6 |
| 20260904130104 | 66 | 328 | 0.0 | 2.0 | 0.00 | 0.56 | 0.53 | 100 | 1010.5 |
| 20260904124551 | 66 | 331 | 0.0 | 3.0 | 0.00 | 0.56 | 0.53 | 100 | 1010.3 |
| 20260904123052 | 66 | 323 | 0.0 | 1.0 | 0.00 | 0.56 | 0.53 | 100 | 1010.0 |
| 20260904121548 | 66 | 323 | 0.0 | 1.0 | 0.00 | 0.56 | 0.53 | 100 | 1009.9 |
| 20260904120013 | 65 | 322 | 0.0 | 1.0 | 0.00 | 0.56 | 0.53 | 100 | 1009.8 |
| 20260904114528 | 65 | 323 | 0.0 | 0.0 | 0.00 | 0.56 | 0.53 | 100 | 1009.8 |
| 20260904113028 | 64 | 322 | 0.0 | 0.0 | 0.00 | 0.56 | 0.53 | 100 | 1009.6 |
| 20260904111526 | 64 | 323 | 0.0 | 0.0 | 0.00 | 0.56 | 0.53 | 100 | 1009.5 |
| 20260904110026 | 64 | 323 | 0.0 | 0.0 | 0.00 | 0.56 | 0.53 | 99 | 1009.4 |
| 20260904104525 | 64 | 322 | 0.0 | 0.0 | 0.00 | 0.56 | 0.53 | 99 | 1009.2 |
| 20260904103026 | 64 | 323 | 0.0 | 1.0 | 0.00 | 0.56 | 0.53 | 99 | 1009.0 |
| 20260904101524 | 64 | 323 | 0.0 | 0.0 | 0.01 | 0.56 | 0.53 | 99 | 1009.1 |
| 20260904100023 | 64 | 323 | 0.0 | 1.0 | 0.38 | 0.56 | 0.53 | 99 | 1009.4 |
| 20260904094522 | 64 | 322 | 0.0 | 2.0 | 0.51 | 0.56 | 0.53 | 99 | 1009.6 |
| 20260904093022 | 64 | 344 | 0.0 | 3.0 | 0.51 | 0.56 | 0.53 | 99 | 1009.6 |
| 20260904091521 | 65 | 130 | 0.0 | 5.0 | 0.51 | 0.56 | 0.52 | 99 | 1009.1 |
| 20260904090024 | 66 | 305 | 2.0 | 8.0 | 0.09 | 0.14 | 0.10 | 100 | 1012.2 |
| 20260904084522 | 65 | 148 | 0.0 | 2.0 | 0.01 | 0.06 | 0.02 | 99 | 1009.8 |
| 20260904083019 | 65 | 148 | 0.0 | 2.0 | 0.01 | 0.06 | 0.02 | 99 | 1009.2 |
| 20260904081516 | 65 | 148 | 0.0 | 1.0 | 0.00 | 0.05 | 0.01 | 99 | 1009.3 |
| 20260904080015 | 65 | 148 | 0.0 | 1.0 | 0.00 | 0.05 | 0.01 | 99 | 1009.7 |
| 20260904074514 | 64 | 148 | 0.0 | 1.0 | 0.00 | 0.05 | 0.01 | 98 | 1009.8 |
| 20260904073012 | 64 | 148 | 0.0 | 1.0 | 0.00 | 0.05 | 0.01 | 98 | 1010.0 |
| 20260904071511 | 64 | 148 | 0.0 | 3.0 | 0.00 | 0.05 | 0.01 | 98 | 1010.0 |
| 20260904070014 | 64 | 148 | 0.0 | 1.0 | 0.00 | 0.05 | 0.01 | 98 | 1010.2 |
| 20260904064508 | 64 | 148 | 0.0 | 3.0 | 0.00 | 0.05 | 0.01 | 98 | 1010.4 |
| 20260904063008 | 64 | 150 | 1.0 | 5.0 | 0.00 | 0.05 | 0.01 | 98 | 1010.6 |
| 20260904061507 | 64 | 83 | 0.0 | 5.0 | 0.00 | 0.05 | 0.01 | 98 | 1011.1 |
| 20260904060006 | 64 | 59 | 1.0 | 3.0 | 0.01 | 0.05 | 0.01 | 98 | 1011.0 |
| 20260904054515 | 64 | 97 | 1.0 | 7.0 | 0.01 | 0.05 | 0.01 | 97 | 1011.3 |
| 20260904053005 | 65 | 355 | 1.0 | 7.0 | 0.01 | 0.05 | 0.01 | 97 | 1011.4 |
| 20260904051537 | 65 | 34 | 1.0 | 4.0 | 0.01 | 0.05 | 0.01 | 97 | 1010.9 |
| 20260904050034 | 64 | 161 | 1.0 | 7.0 | 0.01 | 0.04 | 0.00 | 96 | 1010.5 |
| 20260904044537 | 65 | 306 | 1.0 | 9.0 | 0.04 | 0.04 | 0.04 | 94 | 1011.8 |
| 20260904043040 | 65 | 32 | 0.0 | 4.0 | 0.04 | 0.04 | 0.04 | 94 | 1011.8 |
| 20260904041532 | 66 | 312 | 1.0 | 5.0 | 0.04 | 0.04 | 0.04 | 93 | 1011.4 |
| 20260904040032 | 67 | 5 | 1.0 | 5.0 | 0.03 | 0.03 | 0.03 | 92 | 1011.0 |
| 20260904034531 | 68 | 331 | 2.0 | 8.0 | 0.00 | 0.00 | 0.00 | 92 | 1011.6 |
| 20260904033033 | 69 | 316 | 0.0 | 1.0 | 0.00 | 0.00 | 0.00 | 91 | 1010.6 |
| 20260904031529 | 69 | 316 | 0.0 | 0.0 | 0.00 | 0.00 | 0.00 | 90 | 1010.5 |
| 20260904030035 | 69 | 316 | 0.0 | 1.0 | 0.00 | 0.00 | 0.00 | 88 | 1010.5 |
| 20260904024527 | 69 | 316 | 0.0 | 1.0 | 0.00 | 0.00 | 0.00 | 88 | 1010.2 |
| 20260904023026 | 69 | 316 | 0.0 | 1.0 | 0.00 | 0.00 | 0.00 | 88 | 1010.3 |
| 20260904021530 | 69 | 316 | 0.0 | 2.0 | 0.00 | 0.00 | 0.00 | 88 | 1010.0 |
| 20260904020025 | 69 | 314 | 0.0 | 4.0 | 0.00 | 0.00 | 0.00 | 88 | 1010.0 |
| 20260904014525 | 69 | 30 | 0.0 | 2.0 | 0.00 | 0.00 | 0.00 | 88 | 1010.2 |
| 20260904013024 | 69 | 30 | 0.0 | 4.0 | 0.00 | 0.00 | 0.00 | 89 | 1010.0 |
| 20260904011523 | 69 | 79 | 0.0 | 3.0 | 0.00 | 0.00 | 0.00 | 88 | 1010.2 |
| 20260904010023 | 69 | 81 | 1.0 | 6.0 | 0.00 | 0.00 | 0.00 | 87 | 1010.2 |
| 20260904004526 | 69 | 248 | 0.0 | 7.0 | 0.00 | 0.00 | 0.00 | 86 | 1010.1 |
| 20260904003023 | 69 | 51 | 0.0 | 7.0 | 0.00 | 0.00 | 0.00 | 85 | 1010.4 |
| 20260904001521 | 69 | 59 | 0.0 | 4.0 | 0.00 | 0.00 | 0.00 | 85 | 1010.3 |
| 20260904000021 | 69 | 355 | 1.0 | 7.0 | 0.00 | 0.00 | 0.00 | 84 | 1010.3 |
| 20260903234520 | 70 | 93 | 1.0 | 7.0 | 0.00 | 0.00 | 0.00 | 82 | 1010.2 |
| 20260903233032 | 70 | 5 | 2.0 | 8.0 | 0.00 | 0.00 | 0.00 | 79 | 1010.2 |
| 20260903231531 | 71 | 243 | 1.0 | 6.0 | 0.00 | 0.00 | 0.00 | 77 | 1009.9 |
| 20260903230017 | 72 | 90 | 0.0 | 4.0 | 0.00 | 0.00 | 0.00 | 75 | 1010.3 |
| 20260903224517 | 73 | 20 | 1.0 | 9.0 | 0.00 | 0.00 | 0.00 | 73 | 1010.6 |
| 20260903223016 | 73 | 53 | 1.0 | 6.0 | 0.00 | 0.00 | 0.00 | 71 | 1010.4 |
| 20260903221516 | 73 | 348 | 1.0 | 8.0 | 0.00 | 0.00 | 0.00 | 73 | 1010.5 |
| 20260903220015 | 74 | 54 | 1.0 | 9.0 | 0.00 | 0.00 | 0.00 | 70 | 1010.5 |
| 20260903214515 | 74 | 71 | 1.0 | 9.0 | 0.00 | 0.00 | 0.00 | 71 | 1010.3 |
| 20260903213014 | 74 | 199 | 1.0 | 9.0 | 0.00 | 0.00 | 0.00 | 71 | 1010.3 |
| 20260903211513 | 74 | 38 | 1.0 | 6.0 | 0.00 | 0.00 | 0.00 | 71 | 1010.4 |
| 20260903210013 | 74 | 90 | 1.0 | 3.0 | 0.00 | 0.00 | 0.00 | 74 | 1010.5 |
| 20260903204512 | 73 | 86 | 0.0 | 3.0 | 0.00 | 0.00 | 0.00 | 76 | 1010.5 |
| 20260903203013 | 74 | 53 | 0.0 | 5.0 | 0.00 | 0.00 | 0.00 | 75 | 1010.6 |
| 20260903201511 | 74 | 38 | 0.0 | 5.0 | 0.00 | 0.00 | 0.00 | 75 | 1010.6 |
| 20260903200011 | 75 | 323 | 1.0 | 5.0 | 0.00 | 0.00 | 0.00 | 74 | 1010.6 |
| 20260903194510 | 75 | 30 | 2.0 | 9.0 | 0.00 | 0.00 | 0.00 | 72 | 1010.5 |
| 20260903193012 | 75 | 195 | 2.0 | 7.0 | 0.00 | 0.00 | 0.00 | 73 | 1010.6 |
| 20260903191522 | 77 | 22 | 2.0 | 9.0 | 0.00 | 0.00 | 0.00 | 70 | 1010.7 |
| 20260903190010 | 77 | 67 | 1.0 | 7.0 | 0.00 | 0.00 | 0.00 | 69 | 1010.6 |
| 20260903184506 | 77 | 5 | 1.0 | 6.0 | 0.00 | 0.00 | 0.00 | 69 | 1010.8 |
| 20260903183005 | 77 | 86 | 1.0 | 6.0 | 0.00 | 0.00 | 0.00 | 69 | 1010.9 |
| 20260903181503 | 77 | 334 | 2.0 | 11.0 | 0.00 | 0.00 | 0.00 | 71 | 1011.0 |
| 20260903180002 | 77 | 331 | 3.0 | 10.0 | 0.00 | 0.00 | 0.00 | 70 | 1011.2 |
| 20260903174501 | 76 | 44 | 1.0 | 8.0 | 0.00 | 0.00 | 0.00 | 71 | 1011.3 |
| 20260903173001 | 77 | 57 | 2.0 | 8.0 | 0.00 | 0.00 | 0.00 | 70 | 1011.3 |